Regional Weather Roundup
Issued by NWS

Home | Current Version | Previous Version | Graphics & Text | Print | Product List | Glossary On
Versions: 1 2 3 4 5 6 7 8 9 10 11 12 13 14 15 16 17 18 19 20 21 22 23 24 25 26 27 28 29 30 31 32 33 34 35 36 37 38 39 40 41 42 43 44 45 46 47 48 49 50
000
ASUS45 KTFX 290110
RWRMT
MONTANA REGIONAL WEATHER ROUNDUP
NATIONAL WEATHER SERVICE GREAT FALLS MT
700 PM MDT THU APR 28 2016

NOTE: "FAIR" INDICATES FEW OR NO CLOUDS BELOW 12000 FEET WITH NO
SIGNIFICANT WEATHER AND/OR OBSTRUCTIONS TO VISIBILITY.

MTZ001>007-043-290200-
WEST OF THE DIVIDE

CITY           SKY/WX    TMP DP  RH WIND       PRES   REMARKS
KALISPELL      CLOUDY    51  28  41 E7        30.03F
MISSOULA       PTSUNNY   49  27  42 CALM      30.01F
BUTTE          CLOUDY    36  32  85 NW8       29.99S WCI  30
MULLAN PASS    CLOUDY    36  30  79 CALM      29.98S
ANACONDA         N/A     37  30  75 N8        29.99S WCI  31
DEER LODGE       N/A     43  28  56 NE10      30.01S
EUREKA           N/A     55  32  41 N8          N/A
HAMILTON         N/A     46  30  53 NW12      29.98S
LIBBY            N/A     54  27  35 E3        30.02S
PLAINS           N/A     52  34  50 CALM      30.02S
$$

MTZ008-052>055-290200-
SOUTHWEST MONTANA

CITY           SKY/WX    TMP DP  RH WIND       PRES   REMARKS
BOZEMAN        MOSUNNY   42  27  55 E9        29.99S
DILLON         CLOUDY    41  26  55 NE12      29.95S
ENNIS          CLOUDY    39  28  65 N21G28    29.99S WCI  29
THREE FORKS      N/A     44  35  70 CALM      29.99S
TWIN BRIDGES     N/A     41  26  55 N18       29.95S
$$

MTZ009-010-012-014-046-048-049-054-290200-
EAST SLOPES AND CENTRAL MONTANA

CITY           SKY/WX    TMP DP  RH WIND       PRES   REMARKS
CUT BANK       CLOUDY    43  34  70 W7        30.08F
GREAT FALLS    CLOUDY    41  32  70 E10       30.06F
MALMSTROM AFB  CLOUDY    42  33  70 E12       30.07F
HELENA         CLOUDY    45  32  60 N13       30.01F
CHOTEAU          N/A     37  36  93 E9G15     30.09F FOG     WCI  31
CONRAD           N/A     41  40  96 E6        30.11S
$$

MTZ011-013-016-021-045-047-050-051-290200-
NORTH CENTRAL MONTANA

CITY           SKY/WX    TMP DP  RH WIND       PRES   REMARKS
HAVRE          MOSUNNY   51  32  48 SE14      30.09F
LEWISTOWN      CLOUDY    39  32  76 E12       30.09R WCI  32
N BAR RANCH    CLOUDY    34  32  93 CALM      30.11S
CHINOOK          N/A     52  32  46 SE10      30.10S
$$

MTZ017>020-022>027-061-062-290200-
NORTHEAST MONTANA

CITY           SKY/WX    TMP DP  RH WIND       PRES   REMARKS
GLASGOW        MOSUNNY   52  29  41 SE12      30.11S
JORDAN           N/A     46  33  60 SE20      30.11R
SIDNEY         CLOUDY    54  30  40 S3        30.14R
WOLF POINT     CLOUDY    54  28  36 E13       30.13R
PLENTYWOOD       N/A     55  16  21 E14       30.13S
POPLAR           N/A     54  25  32 SE9       30.14R
SCOBEY           N/A     55  18  23 E13       30.11S
$$

MTZ028>42-056>058-290200-
SOUTHCENTRAL AND SOUTHEAST MONTANA

CITY           SKY/WX    TMP DP  RH WIND       PRES   REMARKS
BAKER          CLOUDY    41  33  73 S8        30.13R
BILLINGS       PTSUNNY   39  33  79 E7        30.08S
LIVINGSTON     CLOUDY    38  27  64 E20G28    30.02S WCI  28
MILES CITY     CLOUDY    43  35  73 E7        30.12R
EKALAKA          N/A     36  31  82 E7        30.08S WCI  30
FORSYTH          N/A     43  37  81 E9        30.11S
LAUREL           N/A     40  25  55 CALM      30.06S
ROUNDUP          N/A     38  33  82 CALM      30.00F
$$

REGIONAL REPORTS...DAKOTAS

CITY           SKY/WX    TMP DP  RH WIND       PRES   REMARKS
WILLISTON      CLOUDY    54  16  22 E13       30.14R
MINOT          PTCLDY    57  15  19 E6        30.14S
DICKINSON      CLOUDY    49  26  41 NE9       30.09R
BEACH          CLOUDY    45  36  70 S7        30.15S
CROSBY           N/A     54  10  17 E14G20    30.17S
TIOGA          CLOUDY    50  16  25 SE12      30.19S
WATFORD CITY   MOCLDY    50  19  29 E8        30.14S
BISMARCK       CLOUDY    52  28  39 NE9       30.12R
GRAND FORKS    PTCLDY    54  27  35 NE8       30.13R
FARGO          MOCLDY    57  24  28 NE12      30.08R
BUFFALO SD       N/A     39  34  82 SW5       30.06R
RAPID CITY     CLOUDY    38  34  85 NE8       30.10R
$$

REGIONAL REPORTS...WYOMING/IDAHO/WASHINGTON

CITY           SKY/WX    TMP DP  RH WIND       PRES   REMARKS
GILLETTE       CLOUDY    36  32  85 NE8       30.07R WCI  30
SHERIDAN       CLOUDY    39  33  79 CALM      30.08R
BUFFALO WY       N/A     35  31  85 MISG      30.07S
CODY           CLOUDY    37  28  70 N10       30.02S WCI  30
YELLOWSTONE LA   N/A     34  25  69 CALM      29.92R
IDAHO FALLS    CLOUDY    57  27  31 N16       29.82R
SALMON         CLOUDY    46  34  61 E13       29.93R
BOISE          SUNNY     65  30  27 NW25G33   29.80R
SPOKANE        PTSUNNY   64  32  30 E9        29.93S
$$

REGIONAL REPORTS...ALBERTA

CITY           SKY/WX    TMP DP  RH WIND       PRES   REMARKS
EDMONTON       SUNNY     57  30  35 S18G29    30.02F
CALGARY        CLOUDY    48  28  46 S22G29    30.06F
MEDICINE HAT   PTSUNNY   55  32  41 E13G18    30.09F
WATERTON GATE    N/A     43  30  61 E3          N/A
MILK RIVER       N/A     48  36  61 E7          N/A
$$

REGIONAL REPORTS...SASKATCHEWAN

CITY           SKY/WX    TMP DP  RH WIND       PRES   REMARKS
SWIFT CURRENT  SUNNY     54  21  28 SE12      30.12S
SASKATOON      PTSUNNY   59  19  21 SE13G20   30.19S
CYPRESS HILLS    N/A     46  25  42 E6          N/A
VAL MARIE        N/A     54  23  30 SE12        N/A
ROCKGLEN         N/A     52  18  25 E12         N/A
ASSINIBOIA       N/A     59  30  33 S15         N/A
$$



USA.gov is the U.S. government's official web portal to all federal, state and local government web resources and services.